Regional Weather Roundup
Issued by NWS Bismarck, ND

Home | Current Version | Previous Version | Text Only | Print | Product List | Glossary On
Versions: 1 2 3 4 5 6 7 8 9 10 11 12 13 14 15 16 17 18 19 20 21 22 23 24 25 26 27 28 29 30 31 32 33 34 35 36 37 38 39 40 41 42 43 44 45 46 47 48 49 50
000
ASUS43 KBIS 260010
RWRBIS

NWR BROADCAST TEXT
NATIONAL WEATHER SERVICE BISMARCK ND
700 PM CDT MON SEP 25 2017

NOTE: "FAIR" INDICATES FEW OR NO CLOUDS BELOW 12,000 FEET WITH NO
SIGNIFICANT WEATHER AND/OR OBSTRUCTIONS TO VISIBILITY.


CITY           SKY/WX    TMP DP  RH WIND       PRES   REMARKS
WILLISTON      LGT RAIN  48  46  93 SE5       30.13S
MINOT          CLOUDY    53  43  68 NE5       30.13R
MINOT AFB      CLOUDY    52  42  69 E3        30.12R
BISMARCK       CLOUDY    52  44  74 E9        30.13R
DICKINSON      CLOUDY    47  43  86 CALM      30.10S
GARRISON         N/A     50  43  77 E6        30.13R
HETTINGER ARPT CLOUDY    49  40  71 E5        30.12F
JAMESTOWN      CLOUDY    50  43  77 N7        30.13R
CARRINGTON     CLOUDY    50  43  76 N6        30.16R
HAZEN          CLOUDY    50  46  87 CALM      30.15R
LINTON         CLOUDY    50  41  71 NE9       30.13F
MANDAN         CLOUDY    50  45  81 E7        30.13S
RUGBY          CLOUDY    52  41  66 NE6       30.12S
STANLEY        CLOUDY    50  43  76 SE7       30.15R
TIOGA          CLOUDY    46  46 100 SW5       30.14R
WATFORD CITY   CLOUDY    48  46  93 SE5       30.12S
$$

CITY           SKY/WX    TMP DP  RH WIND       PRES   REMARKS
GRAND FORKS    CLOUDY    52  48  86 N8        30.12S
GRAND FORKS AF CLOUDY    51  46  81 N7        30.13R
DEVILS LAKE    CLOUDY    50  41  71 NE6       30.15R
FARGO          CLOUDY    53  48  83 N10       30.09S
CANDO          CLOUDY    52  43  71 NE9       30.16R
CAVALIER       MOCLDY    52  45  76 N6        30.13F
GRAFTON        CLOUDY    52  46  82 N6        30.15R
GWINNER        CLOUDY    50  46  87 N9        30.10S
LANGDON        CLOUDY    50  46  87 NE8       30.15S
ROLLA          CLOUDY    50  41  71 E8        30.15R
WALHALLA       FAIR     N/A N/A N/A NE6       30.15R
$$

CITY           SKY/WX    TMP DP  RH WIND       PRES   REMARKS
ABERDEEN       CLOUDY    51  45  79 N14       30.07F
MOBRIDGE       CLOUDY    53  45  74 NE3       30.09S
BUFFALO          N/A     50  41  71 SE6       30.04S
RAPID CITY     CLOUDY    52  43  71 E8        30.08F
GLASGOW        CLOUDY    54  35  48 SE14      30.06R
SIDNEY           N/A    N/A N/A N/A MISG        N/A
WOLF POINT     PTCLDY    53  39  59 SE7       30.10S
GLENDIVE       LGT RAIN  46  40  79 CALM      30.12S
MILES CITY     LGT RAIN  44  40  85 SE6       30.11S
BAKER          CLOUDY    47  37  68 E3        30.11S
$$

CITY           SKY/WX    TMP DP  RH WIND       PRES   REMARKS
BILLINGS       MOSUNNY   58  31  35 CALM      30.02S
GREAT FALLS    PTSUNNY   60  31  33 W3        30.00F
REGINA         PTCLDY    55  32  41 SE14      30.08S
ESTEVAN        MOCLDY    50  39  66 E5        30.12S
$$





USA.gov is the U.S. government's official web portal to all federal, state and local government web resources and services.